Ibrahim Soliman

Recruteur en chef - Ismaily
3 Avr 2027
Samedi
Processus

Personnalité

Adaptabilité (7) Ambition (14) Controverse (12) Loyauté (8) Pression (13) Professionnalisme (13) Sportivité (8) Tempérament (13)

Profil

Style d'entraînement Démocratique
Diplôme National B
Détermination 10
Gestion des joueurs 9
Motivation 6
Discipline 5
Satisfaction professionnelle
89%
Fatigue
0%
Rôle Recruteur en chef
Salaire 51.6K p/s
Contrat 14.03.2028

Performance

Comportement Bon
Efficacité de l'entraînement
35%
Développement des joueurs
60%
Prévention des blessures
40%
Mise en place tactique
45%

Événements récents

A évalué un joueur maintenant
A participé à une réunion de recrutement maintenant
A participé à une réunion de recrutement maintenant
A évalué un joueur maintenant
A évalué un joueur maintenant
A observé un match 7j
A observé un match 7j
A évalué un joueur 7j

Suivi en cours

155
Joueur Club Statut Capacité Confiance Observé Dernière observation Dernier vote
Kingsley Eduwo El Masry Actif 90 / 97 40% 4 02.04.2027 -
Matty Stevens AFC Wimbledon Actif 99 / 101 40% 2 02.04.2027 -
Alimi Sikiru JS Saoura Actif 96 / 104 40% 5 01.04.2027 -
Anatole Abang USM Alger Actif 119 / 121 40% 2 01.04.2027 -
Edarlyn Reyes Arsenal Tula Actif 126 / 95 40% 4 31.03.2027 -
Fábio Tavares Newport County Actif 96 / 108 40% 2 31.03.2027 -
Jerome Karelse Golden Arrows Actif 93 / 110 40% 3 30.03.2027 -
Danyil Alefirenko Chornomorets Refusé 112 / 117 40% 2 29.03.2027 Plus d'infos
Ismaïl Ouro-Agoro Al Gaish Actif 93 / 106 40% 1 27.03.2027 -
Ilja Safronov Rotor Actif 105 / 86 40% 1 27.03.2027 -
Ben Ahmed Kohili Paradou Actif 100 / 118 40% 5 25.03.2027 -
Freddie Draper Lincoln City Actif 96 / 119 40% 1 25.03.2027 -
Shayne Lavery Cambridge United Actif 116 / 95 40% 1 24.03.2027 -
Dadi Mouaki CS Constantine Actif 102 / 89 40% 1 24.03.2027 -
Rafael Arace Najran Actif 96 / 107 40% 2 23.03.2027 -
Ibrahim Al Menhali Al Shaab Actif 119 / 85 40% 1 23.03.2027 -
Carlos Paraco Metalist Actif 102 / 127 40% 2 22.03.2027 -
John Okoye Ebuka Ittihad Actif 132 / 123 40% 10 21.03.2027 -
Louis Appéré Cambridge United Actif 97 / 97 40% 1 18.03.2027 -
Karim El Berkaoui Al Dhafra Actif 140 / 124 40% 10 16.03.2027 -
Amur Kalmykov Spartak Kostroma Actif 87 / 94 40% 1 16.03.2027 -
Ekain Orobengoa Real Sociedad Actif 111 / 104 40% 1 15.03.2027 -
Kwame Opoku Asante Kotoko Actif 94 / 99 40% 1 15.03.2027 -
Ismail Saadi JS Saoura Actif 95 / 93 40% 5 13.03.2027 -
Solly Khunyedi Bloemfontein Celtic Actif 85 / 98 40% 1 13.03.2027 -
Kagiso Malinga Bidvest Wits Actif 96 / 105 40% 3 12.03.2027 -
Suleiman Abdullahi Military Production Actif 100 / 87 40% 1 12.03.2027 -
Domi Berlanga Vicenza Actif 100 / 91 40% 2 11.03.2027 -
Harry Cornick AFC Wimbledon Actif 103 / 106 40% 2 11.03.2027 -
Giorgos Giakoumakis Al Ain Actif 129 / 117 40% 7 10.03.2027 -
Juanjo Narváez Al-Ra'ed Refusé 96 / 125 40% 4 09.03.2027 Refuser
Sory Kaba Al Dhafra Actif 105 / 110 40% 3 09.03.2027 -
Alexandr Yushin Torpedo Moscow Actif 103 / 116 40% 1 04.03.2027 -
Isaac Tshibangu Emirates Club Actif 102 / 112 40% 6 02.03.2027 -
Dmytro Shastal Livyi Bereh Actif 104 / 93 40% 1 02.03.2027 -
Sam Nombe Milton Keynes Dons Actif 107 / 111 40% 2 01.03.2027 -
Firas Ben Larbi Sharjah Actif 114 / 115 40% 7 28.02.2027 -
Mohanad Ali Dibba Actif 112 / 119 40% 6 28.02.2027 -
Peter Itodo Metalist Actif 124 / 128 40% 1 22.02.2027 -
Marcus Browne AFC Wimbledon Actif 116 / 106 40% 1 18.02.2027 -
Zakaria Naïdji MC Alger Actif 112 / 110 40% 3 16.02.2027 -
Martín Álvarez Barnsley Actif 119 / 118 40% 1 16.02.2027 -
Caio Lucas Al Ain Actif 127 / 135 40% 4 10.02.2027 -
Kahraba ENPPI Actif 108 / 105 40% 2 01.02.2027 -
Shokry Naguib Arab Contractors Actif 100 / 98 40% 2 25.01.2027 -
Aaron Drinan Swindon Town Actif 110 / 103 40% 1 18.01.2027 -
Tyrese Shade Burton Albion Actif 106 / 98 40% 1 18.01.2027 -
Radek Šiler Podbrezova Actif 92 / 124 40% 4 16.01.2027 -
Silvère Ganvoula Al-Fayha Actif 130 / 107 40% 1 15.01.2027 -
Chico Banza Zamalek Actif 123 / 122 40% 5 13.01.2027 -
Themba Manyama Ajax Cape Town Actif 96 / 106 40% 3 11.01.2027 -
Andrigo Dibba Actif 110 / 113 40% 1 11.01.2027 -
Álvaro Medrán Al-Ettifaq Actif 145 / 127 40% 5 08.01.2027 -
Ali Saleh Al Wasl Actif 125 / 113 40% 1 08.01.2027 -
Erick Ngcobo Black Aces Actif 108 / 114 40% 2 05.01.2027 -
Ali Soliman Masr El Makasa Actif 125 / 121 40% 1 05.01.2027 -
Moses Twum Haras El Hodoud Actif 87 / 100 40% 3 31.12.2026 -
Fethallah Tahar Olympique Akbou Actif 96 / 105 40% 4 28.12.2026 -
Valentín Vada Damac Actif 122 / 112 40% 5 28.12.2026 -
Mohammed Al-Dossary Al-Ra'ed Actif 88 / 91 40% 1 28.12.2026 -
Isaac Success Al Shaab Actif 113 / 123 40% 7 26.12.2026 -
Saeed Al-Hamsal Al-Khaleej Actif 98 / 117 40% 1 26.12.2026 -
Richard Akonnor Al Jazira Actif 126 / 102 40% 1 26.12.2026 -
Qara Ozobic Inter Actif 107 / 102 40% 1 25.12.2026 -
Chris Bedia Al Nasr Actif 116 / 134 40% 2 24.12.2026 -
Ihor Krasnopir Polissia Actif 121 / 101 40% 1 22.12.2026 -
Darwin González Al-Wehda Actif 122 / 123 40% 2 21.12.2026 -
Dániel Lukács Puskas Akademia Actif 103 / 112 40% 3 20.12.2026 -
Alfa Semedo Al-Fayha Actif 122 / 112 40% 4 19.12.2026 -
Achraf Bencharki Al Ahly Actif 135 / 124 40% 4 16.12.2026 -
Tiago Pucciarelli FK Senica Actif 84 / 109 40% 1 11.12.2026 -
Omar Khribin Al Wahda Actif 149 / 117 40% 5 10.12.2026 -
Tin Jedvaj Al-Shabab Actif 99 / 121 40% 2 10.12.2026 -
Merwane Khelif MC Alger Actif 116 / 112 40% 1 10.12.2026 -
Rodin Quiñónes Dinamo Batumi Actif 105 / 102 40% 3 05.12.2026 -
Felix Kudus Hasaacas Actif 113 / 108 40% 1 05.12.2026 -
Abdullah Al-Yousif Al-Ra'ed Actif 96 / 93 40% 1 03.12.2026 -
Mehdi Boudjemaa CR Belouizdad Actif 118 / 113 40% 1 03.12.2026 -
Madallah Al-Olayan Al-Ettifaq Actif 92 / 121 40% 1 30.11.2026 -
Luke Baartman Chippa United Actif 94 / 123 40% 1 27.11.2026 -
Roger Martínez Al-Shabab Actif 133 / 126 40% 1 25.11.2026 -
Kristian Eriksen Molde Actif 142 / 125 40% 2 24.11.2026 -
Wandile Duba Bidvest Wits Actif 120 / 114 40% 2 23.11.2026 -
Taher Mohamed Al Ahly Actif 109 / 130 40% 1 23.11.2026 -
Wesley Hoedt Al-Shabab Actif 111 / 140 40% 1 20.11.2026 -
Gláuber Al Nasr Actif 127 / 123 40% 1 20.11.2026 -
Jobson Al Dhafra Actif 124 / 130 40% 1 19.11.2026 -
Hamdi Labidi Olympique Akbou Actif 91 / 100 40% 2 17.11.2026 -
Morad Khodari Al-Wehda Actif 86 / 107 40% 1 17.11.2026 -
Andreas Gruber DAC Dunajska Streda Actif 118 / 115 40% 1 15.11.2026 -
Ibrahim Tarek Masr El Makasa Actif 137 / 126 40% 1 15.11.2026 -
Lebogang Zwane Black Aces Actif 105 / 112 40% 2 11.11.2026 -
Cho Yu-Min Sharjah Actif 101 / 104 40% 1 11.11.2026 -
Ousmane Camara Sharjah Actif 107 / 104 40% 2 08.11.2026 -
Mahmoud El Wensh Zamalek Actif 119 / 116 40% 1 07.11.2026 -
Ezeckiel Noumonvi Al Dhafra Actif 91 / 105 40% 1 05.11.2026 -
Ahmed Sharahili Al-Ittihad Actif 128 / 108 40% 1 05.11.2026 -
Kurt Zouma Al Wasl Actif 118 / 138 40% 1 04.11.2026 -
Dino Halilović Al-Wehda Actif 111 / 94 40% 1 04.11.2026 -
Ali Suqrat Al Shaab Actif 101 / 115 40% 1 01.11.2026 -
Franck Boli Wadi Degla Actif 108 / 118 40% 1 29.10.2026 -
Abdulmalik Al-Jaber Al-Nassr Actif 107 / 106 40% 1 28.10.2026 -
Maro Katinić Sharjah Actif 122 / 114 40% 1 28.10.2026 -
David Barbona Defensa y Justicia Actif 121 / 134 40% 2 24.10.2026 -
Bruno Al Jazira Actif 115 / 99 40% 1 24.10.2026 -
Walid Hassan Al Shabab Actif 115 / 115 40% 1 20.10.2026 -
Ondrej Duda Zamalek Actif 148 / 130 40% 1 20.10.2026 -
Mohamed Sherif Al Ahly Actif 115 / 100 40% 3 18.10.2026 -
Chinedu Geoffrey Krylya Sovetov Actif 124 / 107 40% 1 18.10.2026 -
Saymon Dibba Actif 90 / 111 40% 1 18.10.2026 -
Victor Mbaoma Tusker Actif 85 / 81 40% 2 16.10.2026 -
Abdullah Al-Khaibari Al-Nassr Actif 126 / 103 40% 1 15.10.2026 -
Marwan Ateya Al Ahly Actif 118 / 132 40% 2 09.10.2026 -
Abdulkarim Darisi Al-Hilal Actif 113 / 121 40% 1 08.10.2026 -
Albert Amoah Hajer Actif 83 / 114 40% 1 05.10.2026 -
Wilder Cartagena Persepolis Actif 143 / 134 40% 1 05.10.2026 -
Mohamed Kanno Al-Hilal Actif 127 / 134 40% 1 05.10.2026 -
Mackenzie Hunt Baniyas Actif 92 / 104 40% 2 02.10.2026 -
Yanis Hamache MC Oran Actif 114 / 111 40% 1 02.10.2026 -
Wilfried Eza Al-Faisaly Actif 81 / 113 40% 2 30.09.2026 -
Ali Adnan Al-Wehda Actif 117 / 95 40% 2 29.09.2026 -
Zinho Gano Al-Ra'ed Actif 111 / 106 40% 4 29.09.2026 -
Alfredo Garcia La Equidad Actif 147 / 151 40% 1 29.09.2026 -
Sultan Al-Ghannam Al-Nassr Actif 116 / 129 40% 2 26.09.2026 -
Ramadan Mohsen Zamalek Actif 110 / 132 40% 1 26.09.2026 -
Evidence Mokoena Platinum Stars Actif 91 / 89 40% 1 23.09.2026 -
Ramiro Ruiz Rodríguez Atlético Tucumán Actif 138 / 112 40% 2 21.09.2026 -
Saeed Baattia Al-Fateh Actif 113 / 100 40% 1 21.09.2026 -
Renato Júnior Al Wasl Actif 130 / 108 40% 1 19.09.2026 -
Riad Benayad ES Setif Actif 94 / 110 40% 3 18.09.2026 -
Fahad Al-Zubaidi Al-Fateh Actif 106 / 116 40% 2 16.09.2026 -
Nicolás Giménez Al Wasl Actif 111 / 126 40% 1 16.09.2026 -
Ahmed Mohamed Kerroum MC Oran Actif 97 / 94 40% 1 16.09.2026 -
Facundo Kruspzky Al Wahda Actif 116 / 113 40% 1 14.09.2026 -
Lucas Souto Defensa y Justicia Actif 142 / 125 40% 1 13.09.2026 -
Leandrinho Emirates Club Actif 104 / 112 40% 1 13.09.2026 -
Ahmed Fatouh Zamalek Actif 116 / 131 40% 1 11.09.2026 -
Hicham Khaloua Al-Ra'ed Actif 87 / 116 40% 1 09.09.2026 -
Salem Al Kamali Al Jazira Actif 101 / 110 40% 1 06.09.2026 -
Abdoulaye Touré Al Nasr Actif 101 / 111 40% 1 04.09.2026 -
Richard Figueroa Deportivo Lara Actif 108 / 92 40% 1 03.09.2026 -
Lebo Mothiba Mamelodi Sundowns Actif 110 / 112 40% 1 01.09.2026 -
Amer Ismail Al Ahli Actif 126 / 101 40% 1 31.08.2026 -
Siaka Sidibé Al Wasl Actif 131 / 130 40% 1 31.08.2026 -
Mohamed Ali Ben Hammouda CR Belouizdad Actif 93 / 112 40% 1 31.08.2026 -
Marcelo Torres Gimnasia La Plata Actif 137 / 131 40% 3 29.08.2026 -
Mohammed Al-Khabrani Al-Khaleej Actif 121 / 92 40% 1 28.08.2026 -
Muteb Al-Mufarrij Al-Taawoun Actif 117 / 99 40% 1 28.08.2026 -
Solomon Tweh Al-Ra'ed Actif 110 / 119 40% 1 28.08.2026 -
Nasser Al Shamsi Al Shabab Actif 111 / 138 40% 1 28.08.2026 -
Léo Azevedo Sharjah Actif 115 / 111 40% 1 22.08.2026 -
Yousef Al-Shammari Al-Faisaly Actif 81 / 107 40% 1 19.08.2026 -
Ahmed Ali Amin Smouha Actif 72 / 82 51% 1 17.08.2026 -
Youssef Hassan Al Shabab Actif 128 / 126 40% 1 05.08.2026 -
Rodrigo Bogarín Barracas Central Actif 134 / 111 40% 1 01.08.2026 -